Regional Weather Roundup
Issued by NWS Upton, NY

Current Version | Previous Version | Text Only | Print | Product List | Glossary On
Versions: 1 2 3 4 5 6 7 8 9 10 11 12 13 14 15 16 17 18 19 20 21 22 23 24 25 26 27 28 29 30 31 32 33 34 35 36 37 38 39 40 41 42 43 44 45 46 47 48 49 50
000
ASUS41 KOKX 270608
RWROKX

REGIONAL WEATHER ROUNDUP
NATIONAL WEATHER SERVICE NEW YORK NY
200 AM EDT MON MAR 27 2017

NOTE: "FAIR" INDICATES FEW OR NO CLOUDS BELOW 12,000 FEET WITH NO
SIGNIFICANT WEATHER AND/OR OBSTRUCTIONS TO VISIBILITY.

NYZ071-072-176-178-NJZ106-104-270700-
NEW YORK CITY METRO AREA

CITY           SKY/WX    TMP DP  RH WIND       PRES   REMARKS
Central Park   CLOUDY    38  37  97 E9        30.28F FOG     WCI  31
Wall St Helipt CLOUDY    39  37  93 NE13      30.27F WCI  32
LaGuardia APRT DRIZZLE   39  37  92 NE13      30.26F FOG     WCI  31
Kennedy INTL   DRIZZLE   40  39  97 NE8       30.27F FOG     WCI  34
Breezy Point     N/A     37 N/A N/A NE7         N/A  WCI  32
Newark/Liberty DRIZZLE   40  39  97 NE8       30.26F FOG     WCI  34
Teterboro      CLOUDY    39  37  92 NE5G17    30.26F FOG
$$

NYZ177-179-078>081-270700-
LONG ISLAND NEW YORK

CITY           SKY/WX    TMP DP  RH WIND       PRES   REMARKS
Jones Beach      N/A     39 N/A N/A E17         N/A  WCI  30
Matinecock PT  NOT AVBL
Farmingdale    CLOUDY    39  38  96 E7        30.26F FOG     WCI  34
MacArthur/ISP  CLOUDY    38  38 100 E7        30.26F FOG     WCI  33
Shirley        CLOUDY    38  38 100 VRB3      30.28F FOG
Westhampton    CLOUDY    38  36  92 E8        30.30F FOG     WCI  32
East Hampton   CLOUDY    37  36  96 E9        30.29F FOG     WCI  30
Montauk          N/A     38  37  97 E6        30.31F WCI  33
$$

NYZ052-065-067-270700-
HUDSON VALLEY

CITY           SKY/WX    TMP DP  RH WIND       PRES   REMARKS
White Plains   DRIZZLE   36  34  92 E9        30.25F FOG     WCI  29
Newburgh       CLOUDY    36  36 100 E7        30.27F FOG     WCI  30
Montgomery     LGT RAIN  36  35  96 NE5       30.24F FOG     WCI  32
Poughkeepsie   CLOUDY    35  33  92 CALM      30.26F
Albany         CLOUDY    37  29  72 S16G25    30.23F WCI  28
$$

NJZ001-105-106-008-010-013-015-019>022-104-270700-
NEW JERSEY

CITY           SKY/WX    TMP DP  RH WIND       PRES   REMARKS
Newark/Liberty DRIZZLE   40  39  97 NE8       30.26F FOG     WCI  34
Teterboro      CLOUDY    39  37  92 NE5G17    30.26F FOG
Caldwell       CLOUDY    38  36  92 E7        30.26F FOG     WCI  33
Somerville     CLOUDY    40  39  97 E5        30.23F FOG
Linden         CLOUDY    40  38  93 E10       30.26F FOG     WCI  33
Sussex         LGT RAIN  37  36  96 NE5       30.23F FOG     WCI  33
Andover          N/A     37  35  92 CALM      30.22F
Trenton        CLOUDY    40  40 100 E13       30.21F FOG     WCI  32
Millville      FOG       44  44 100 E7        30.19F VSB 3/4
Atlantic City  FOG       45  44  97 E7        30.20F VSB 1/2
Wrightstown    CLOUDY    41  39  93 NE8       30.19F FOG
Toms River     LGT RAIN  41  41 100 NE8       30.23F FOG
Belmar         LGT RAIN  40  39  97 NE12      30.24F FOG     WCI  33
$$

PAZ047>061-062-071-270700-
EASTERN PENNSYLVANIA

CITY           SKY/WX    TMP DP  RH WIND       PRES   REMARKS
Philadelphia   CLOUDY    42  40  92 E8        30.21F FOG
Allentown      LGT RAIN  40  37  89 E8        30.21F FOG     WCI  34
Scranton       LGT RAIN  39  36  89 NE7       30.15F WCI  34
$$

CTZ002-004>006-009-010-012-RIZ004-006-007-MAZ004-011-015-270700-
SOUTHERN NEW ENGLAND
 IN CT

CITY           SKY/WX    TMP DP  RH WIND       PRES   REMARKS
Bradley INTL   CLOUDY    36  30  79 SE7       30.31F WCI  30
Hartford       CLOUDY    36  31  82 E6        30.32F WCI  31
Danbury        CLOUDY    35  34  96 E6        30.28F FOG     WCI  30
Wtrbury/Oxford CLOUDY    34  28  80 CALM      30.27F
Bridgeport     CLOUDY    38  36  92 E15       30.29F FOG     WCI  29
Meriden        CLOUDY    36  33  89 NE3       30.30F FOG
New Haven      CLOUDY    36  35  96 NE7       30.29F FOG     WCI  30
Chester        NOT AVBL
Groton         CLOUDY    36  34  92 NE8       30.31F WCI  30
Wilimantic     CLOUDY    37  32  82 E3        30.32F

 IN RI

CITY           SKY/WX    TMP DP  RH WIND       PRES   REMARKS
Providence     CLOUDY    36  31  82 SE8       30.33F WCI  30
Block Island   MIX PCPN  36  36 100 E12       30.31F FOG     WCI  28
Westerly       CLOUDY    37  35  92 E12       30.31F WCI  29
 IN MA

CITY           SKY/WX    TMP DP  RH WIND       PRES   REMARKS
Boston         CLOUDY    37  32  82 E9        30.36F WCI  30
Worcester      CLOUDY    32  27  81 E5        30.30F WCI  27
Westfield      CLOUDY    36  29  75 CALM      30.31F
Provincetown   CLOUDY    38  30  73 SE6       30.37F WCI  33
Nantucket      CLOUDY    39  35  86 E14       30.32F WCI  31
$$

ANZ330-335-338-340-345-350-353-355-270700-
COASTAL MARINE OBSERVATIONS


STATION/POSITION TIME  SKY/WX   TEMP    WIND        PRES    VSBY  WAVE
                                AIR SEA DIR/SP/G                  HT/PER
                 (UTC)          (F)     (DEG/KT/KT) (MB)    (MI)  (FT/S)
NY HARB ENTRANCE 0450            41 42   60/ 16/ 19 1025.1          5/ 7
20 S FIRE ISLAND 0550            41 40   70/ 14/ 17 1023.7          6/ 7
GREAT SOUTH BAY  NOT AVBL
23 SSW MONTAUK P 0450            40 43              1026.9          6/ 7
15 E BARNEGAT LI 0530               43                N/A           6/ 8
HUDSON CANYON    0450            46 44   60/  4/  6 1023.8          8/ 8
KINGS POINT      0542            37 39              1024.9
EXECUTION ROCKS  NOT AVBL
CENTRAL LI SOUND 0515            38      80/ 16/ 17   N/A           2/ 4
EASTERN LI SOUND NOT AVBL
ROBBINS REEF     0542            38      40/ 10/ 12 1024.9
$$


>>>>>>>>>>>>>>>>>>>>>>>>>>>> KEY <<<<<<<<<<<<<<<<<<<<<<<<<<<
>                                                          <
>     SKY/WX - Sky Condition/Present Weather               <
>     TMP    - Temperature in Fahrenheit                   <
>     DP     - Dew Point in Fahrenheit                     <
>     RH     - Relative Humidity in Percent                <
>     WIND   - Direction (from) and Speed in MPH           <
>     PRES   - Mean Sea Level Pressure (inches of Hg)      <
>     WCI    - Wind Chill Index                            <
>     VSB    - VISIBILITY IN MILES                         <
>     HX     - HEAT INDEX                                  <
>     TC     - TEMPERATURE IN CELSIUS                      <
>     VRB    - VARIABLE WIND DIRECTION                     <
>                                                          <
>>>>>>>>>>>>>>>>>>>>>>>>>>>> KEY <<<<<<<<<<<<<<<<<<<<<<<<<<<



USA.gov is the U.S. government's official web portal to all federal, state and local government web resources and services.